N4AR Weather Reports


time (UTC)temp
C
wind
direction
speed
KPH
gust
KPH
rain 1hr
cm
rain 24hr
cm
rain mn
cm
humidity
%
barometer
mb
20260507151501 12 63 0.0 1.6 0.13 1.19 1.19 93 1011.7
20260507150958 12 70 3.2 3.2 0.00 1.17 1.17 92 1011.5
20260507150455 12 48 3.2 4.8 0.00 1.17 1.17 94 1011.9
20260507145951 12 68 3.2 3.2 0.00 1.17 1.17 94 1012.2
20260507145447 12 76 0.0 1.6 0.00 1.17 1.17 94 1011.9
20260507144944 12 71 1.6 1.6 0.18 1.17 1.17 94 1012.1
20260507144441 12 59 3.2 4.8 0.18 1.17 1.17 94 1012.1
20260507143938 12 47 1.6 3.2 0.00 1.14 1.14 95 1012.1
20260507143436 12 49 1.6 1.6 0.00 1.14 1.14 95 1011.9
20260507142932 12 97 3.2 6.4 0.00 1.14 1.14 95 1012.0
20260507142428 13 47 1.6 3.2 0.00 1.14 1.14 95 1011.8
20260507141925 13 82 6.4 6.4 0.18 1.14 1.14 95 1011.8
20260507141421 13 67 0.0 1.6 0.18 1.14 1.14 94 1011.8
20260507140918 13 51 1.6 3.2 0.13 1.12 1.12 94 1011.8
20260507140414 13 36 3.2 4.8 0.30 1.12 1.12 94 1012.0
20260507135913 13 64 3.2 3.2 0.18 1.09 1.09 95 1011.8
20260507135409 14 53 3.2 4.8 0.18 1.09 1.09 95 1011.7
20260507134906 14 82 0.0 1.6 0.00 1.07 1.07 96 1011.6
20260507134402 14 76 0.0 1.6 0.00 1.07 1.07 95 1011.7
20260507133858 14 78 1.6 1.6 0.00 1.07 1.07 95 1011.5
20260507133354 14 6 1.6 1.6 0.00 1.07 1.07 95 1011.6
20260507132853 14 67 0.0 1.6 0.00 1.07 1.07 95 1011.8
20260507132349 14 78 0.0 1.6 0.00 1.07 1.07 95 1011.6
20260507131846 14 69 3.2 4.8 0.00 1.07 1.07 95 1011.6
20260507131343 14 74 0.0 1.6 0.00 1.07 1.07 95 1011.8
20260507130840 14 56 1.6 3.2 0.00 1.07 1.07 95 1011.4
20260507130337 14 76 1.6 3.2 0.00 1.07 1.07 95 1011.8
20260507125836 14 81 0.0 1.6 0.00 1.07 1.07 95 1011.5
20260507125333 14 65 1.6 1.6 0.00 1.07 1.07 95 1011.4
20260507124830 14 70 3.2 3.2 0.00 1.07 1.07 95 1011.7
20260507124326 14 46 3.2 3.2 0.00 1.07 1.07 95 1011.7
20260507123825 14 73 0.0 1.6 0.00 1.07 1.07 95 1011.9
20260507123322 14 56 3.2 3.2 0.00 1.07 1.07 95 1011.9
20260507122818 14 40 3.2 4.8 0.00 1.07 1.07 95 1011.7
20260507122313 15 71 3.2 3.2 0.13 1.07 1.07 96 1011.5
20260507121810 15 89 0.0 1.6 0.13 1.07 1.07 97 1011.3
20260507121306 15 67 3.2 3.2 0.00 1.04 1.04 97 1010.9
20260507120802 15 78 0.0 1.6 0.18 1.04 1.04 97 1011.3
20260507120259 15 67 0.0 1.6 0.30 1.04 1.04 97 1011.6
20260507115755 15 77 0.0 1.6 0.30 1.02 1.02 97 1011.1
20260507115251 15 51 3.2 4.8 0.48 0.99 0.99 97 1011.3
20260507114746 15 76 1.6 1.6 0.30 0.97 0.97 97 1011.2
20260507114244 15 61 0.0 1.6 0.18 0.94 0.94 97 1011.3
20260507113741 15 68 1.6 1.6 0.00 0.91 0.91 97 1011.1
20260507113238 15 65 1.6 1.6 0.00 0.91 0.91 97 1011.4
20260507112736 16 66 1.6 1.6 0.00 0.91 0.91 97 1011.3
20260507112232 16 66 1.6 1.6 0.13 0.91 0.91 97 1011.0
20260507111730 16 42 1.6 1.6 0.13 0.91 0.91 97 1010.8
20260507111227 16 57 4.8 6.4 0.30 0.89 0.89 97 1011.0
20260507110723 16 71 1.6 1.6 0.48 0.89 0.89 97 1010.8
20260507110219 17 75 0.0 1.6 0.36 0.84 0.84 97 1010.9
20260507105716 17 68 1.6 1.6 0.48 0.81 0.81 97 1010.8
20260507105212 17 42 1.6 3.2 0.30 0.79 0.79 97 1010.6
20260507104710 18 78 0.0 1.6 0.30 0.76 0.76 97 1010.4
20260507104206 18 80 0.0 0.0 0.13 0.74 0.74 97 1010.4
20260507103702 18 80 0.0 0.0 0.18 0.71 0.71 97 1010.2
20260507103159 18 81 0.0 0.0 0.18 0.71 0.71 97 1010.0
20260507102655 18 81 0.0 0.0 0.00 0.69 0.69 97 1009.9
20260507102152 18 79 0.0 0.0 0.13 0.69 0.69 97 1010.0
20260507101647 18 82 0.0 0.0 0.30 0.69 0.69 97 1010.2
20260507101143 18 73 0.0 0.0 0.30 0.66 0.66 97 1010.0
20260507100641 18 74 0.0 0.0 0.30 0.64 0.64 97 1010.1
20260507100140 18 62 1.6 1.6 0.30 0.61 0.61 97 1010.1
20260507095637 18 92 1.6 1.6 0.30 0.58 0.58 97 1009.9
20260507095133 18 85 1.6 1.6 0.18 0.56 0.56 97 1009.8
20260507094629 18 79 0.0 0.0 0.30 0.53 0.53 97 1010.0
20260507094126 18 77 0.0 1.6 0.48 0.53 0.53 97 1010.1
20260507093624 18 98 3.2 3.2 0.30 0.48 0.48 96 1010.1
20260507093123 18 72 1.6 1.6 0.43 0.46 0.46 96 1010.0
20260507092619 18 61 1.6 1.6 1.19 0.43 0.43 96 1009.9
20260507092115 18 69 0.0 1.6 0.89 0.38 0.38 96 1009.8
20260507091612 18 82 0.0 0.0 0.13 0.25 0.25 96 1009.7
20260507091108 18 68 0.0 1.6 0.00 0.23 0.23 96 1009.6
20260507090604 18 69 1.6 1.6 0.00 0.23 0.23 96 1009.5
20260507090101 18 89 1.6 1.6 0.00 0.23 0.23 96 1009.3
20260507085558 18 75 0.0 1.6 0.00 0.23 0.23 96 1009.2
20260507085055 18 79 1.6 1.6 0.00 0.23 0.23 96 1009.0
20260507084551 18 71 1.6 1.6 0.00 0.23 0.23 96 1009.1
20260507084048 18 85 1.6 3.2 0.00 0.23 0.23 96 1009.2
20260507083545 18 57 1.6 3.2 0.00 0.23 0.23 96 1009.5
20260507083042 18 80 0.0 1.6 0.00 0.23 0.23 96 1009.2
20260507082538 18 83 0.0 1.6 0.00 0.23 0.23 96 1009.6
20260507082034 18 84 0.0 1.6 0.00 0.23 0.23 96 1009.9
20260507081531 18 70 0.0 0.0 0.00 0.23 0.23 96 1010.0
20260507081028 18 83 0.0 1.6 0.00 0.23 0.23 96 1009.6
20260507080523 18 76 0.0 1.6 0.00 0.23 0.23 96 1009.5
20260507080020 18 74 0.0 1.6 0.00 0.23 0.23 96 1009.1
20260507075515 18 79 0.0 0.0 0.18 0.23 0.23 96 1009.4
20260507075012 18 93 0.0 1.6 0.18 0.23 0.23 96 1009.8
20260507074509 19 76 0.0 1.6 0.18 0.23 0.23 96 1010.0
20260507074008 19 82 0.0 1.6 0.00 0.20 0.20 96 1009.9
20260507073503 18 90 0.0 1.6 0.00 0.20 0.20 96 1009.9
20260507073000 18 73 0.0 0.0 0.00 0.20 0.20 96 1010.0
20260507072458 18 79 0.0 1.6 0.00 0.20 0.20 96 1009.9
20260507071954 18 50 1.6 3.2 0.00 0.20 0.20 96 1010.1
20260507071452 18 98 0.0 1.6 0.00 0.20 0.20 96 1009.8
20260507070948 18 102 1.6 1.6 0.00 0.20 0.20 96 1010.0
20260507070446 18 73 1.6 3.2 0.00 0.20 0.20 96 1009.9
20260507065942 18 35 1.6 1.6 0.00 0.20 0.20 96 1010.1
20260507065439 18 81 1.6 1.6 0.00 0.20 0.20 96 1010.2
20260507064936 18 80 0.0 0.0 0.00 0.20 0.20 96 1010.4
20260507064434 18 84 1.6 1.6 0.00 0.20 0.20 96 1010.1
20260507063932 18 73 0.0 1.6 0.00 0.20 0.20 96 1010.0
20260507063428 18 83 0.0 0.0 0.00 0.20 0.20 95 1009.8
20260507062926 18 81 0.0 0.0 0.00 0.20 0.20 95 1009.8
20260507062423 18 83 0.0 0.0 0.00 0.20 0.20 95 1010.2
20260507061920 18 75 0.0 0.0 0.18 0.20 0.20 95 1010.0
20260507061418 18 76 0.0 1.6 0.30 0.20 0.20 95 1009.7
20260507060916 18 83 0.0 0.0 0.30 0.18 0.18 95 1009.5
20260507060413 18 77 0.0 0.0 0.18 0.15 0.15 94 1009.7
20260507055909 18 74 0.0 0.0 0.13 0.13 0.13 94 1010.0
20260507055404 18 81 0.0 1.6 0.13 0.13 0.13 94 1010.3
20260507054902 18 72 1.6 1.6 0.00 0.10 0.10 94 1010.7
20260507054358 18 74 0.0 0.0 0.18 0.10 0.10 94 1010.9
20260507053855 18 65 0.0 1.6 0.18 0.10 0.10 93 1010.9
20260507053353 18 84 3.2 4.8 0.00 0.08 0.08 93 1010.9
20260507052851 18 23 1.6 1.6 0.00 0.08 0.08 93 1011.0
20260507052348 19 82 1.6 1.6 0.00 0.08 0.08 92 1011.0
20260507051845 19 93 0.0 1.6 0.13 0.08 0.08 92 1011.4
20260507051343 19 74 1.6 1.6 0.13 0.08 0.08 92 1011.2
20260507050839 19 76 0.0 1.6 0.00 0.05 0.05 91 1011.4
20260507050336 19 82 0.0 1.6 0.18 0.05 0.05 91 1011.3
20260507045833 19 96 1.6 1.6 0.18 0.05 0.05 90 1011.4
20260507045329 19 87 0.0 1.6 0.00 0.03 0.03 89 1011.3
20260507044827 19 77 0.0 1.6 0.00 0.03 0.03 89 1011.1
20260507044323 20 78 0.0 1.6 0.13 0.03 0.03 88 1011.2
20260507043819 20 71 0.0 0.0 0.13 0.03 0.03 86 1010.8
20260507043316 20 80 0.0 0.0 0.00 0.00 0.00 85 1010.6
20260507042812 20 81 0.0 1.6 0.00 0.00 0.00 84 1010.8
20260507042308 20 89 1.6 1.6 0.00 0.00 0.00 83 1010.7
20260507041805 20 78 0.0 0.0 0.00 0.00 0.00 81 1010.8
20260507041301 21 70 1.6 1.6 0.00 0.00 0.00 79 1010.8
20260507040759 21 93 1.6 1.6 0.00 0.00 0.00 78 1010.9
20260507040255 21 90 1.6 1.6 0.00 0.00 0.00 77 1011.0
20260507035751 21 88 0.0 1.6 0.00 0.00 0.00 76 1011.0
20260507035246 21 83 0.0 1.6 0.00 0.00 0.00 75 1010.8
20260507034744 21 75 1.6 1.6 0.00 0.00 0.00 75 1010.9
20260507034241 21 94 1.6 1.6 0.00 0.00 0.00 75 1010.8
20260507033739 21 77 0.0 1.6 0.00 0.00 0.00 75 1010.6
20260507033236 21 79 0.0 1.6 0.00 0.00 0.00 74 1010.6
20260507032734 21 76 0.0 0.0 0.00 0.00 0.00 75 1010.5
20260507032229 21 74 0.0 0.0 0.00 0.00 0.00 74 1010.5
20260507031726 21 45 1.6 1.6 0.00 0.00 0.00 74 1010.7
20260507031223 21 86 1.6 1.6 0.00 0.00 0.00 74 1010.5
20260507030720 21 89 1.6 1.6 0.00 0.00 0.00 75 1010.6
20260507030217 21 77 0.0 0.0 0.00 0.00 0.00 74 1010.4
20260507025714 21 73 0.0 0.0 0.00 0.00 0.00 74 1010.3
20260507025211 21 71 1.6 4.8 0.00 0.00 0.00 75 1010.4
20260507024710 21 77 1.6 1.6 0.00 0.00 0.00 75 1010.4
20260507024206 21 84 1.6 3.2 0.00 0.00 0.00 75 1010.8
20260507023701 21 90 1.6 1.6 0.00 0.00 0.00 75 1010.8
20260507023159 21 81 0.0 0.0 0.00 0.00 0.00 75 1010.9
20260507022656 21 98 0.0 1.6 0.00 0.00 0.00 75 1010.9
20260507022152 21 85 0.0 1.6 0.00 0.00 0.00 75 1011.0
20260507021648 21 70 0.0 0.0 0.00 0.00 0.00 75 1011.2
20260507021143 21 78 0.0 0.0 0.00 0.00 0.00 74 1011.0
20260507020643 21 80 3.2 3.2 0.00 0.00 0.00 75 1010.8
20260507020138 21 102 1.6 1.6 0.00 0.00 0.00 75 1010.9
20260507015637 21 75 1.6 1.6 0.00 0.00 0.00 75 1010.7
20260507015134 21 80 0.0 1.6 0.00 0.00 0.00 75 1010.9
20260507014630 21 88 0.0 1.6 0.00 0.00 0.00 75 1010.8
20260507014126 21 56 1.6 1.6 0.00 0.00 0.00 74 1011.2
20260507013623 21 80 0.0 0.0 0.00 0.00 0.00 74 1010.9
20260507013120 21 81 0.0 1.6 0.00 0.00 0.00 74 1011.1
20260507012618 21 85 0.0 1.6 0.00 0.00 0.00 74 1010.6
20260507012113 21 61 0.0 1.6 0.00 0.00 0.00 73 1010.7
20260507011611 21 89 1.6 1.6 0.00 0.00 0.00 73 1010.7
20260507011107 21 79 0.0 0.0 0.00 0.00 0.00 73 1010.7
20260507010602 21 81 0.0 0.0 0.00 0.00 0.00 72 1010.9
20260507010058 21 81 0.0 0.0 0.00 0.00 0.00 71 1010.7
20260507005556 21 86 0.0 0.0 0.00 0.00 0.00 71 1010.7
20260507005052 21 82 1.6 1.6 0.00 0.00 0.00 71 1011.1
20260507004549 21 85 0.0 0.0 0.00 0.00 0.00 70 1010.8
20260507004046 22 88 1.6 1.6 0.00 0.00 0.00 70 1011.1
20260507003542 22 80 0.0 0.0 0.00 0.00 0.00 70 1011.0
20260507003037 22 83 0.0 0.0 0.00 0.00 0.00 69 1011.2
20260507002534 22 74 0.0 0.0 0.00 0.00 0.00 68 1011.2
20260507002030 22 75 0.0 1.6 0.00 0.00 0.00 68 1010.9
20260507001527 22 69 0.0 1.6 0.00 0.00 0.00 68 1010.7
20260507001025 22 79 0.0 0.0 0.00 0.00 0.00 67 1010.6
20260507000520 22 76 0.0 1.6 0.00 0.00 0.00 66 1011.0
20260507000016 22 82 0.0 0.0 0.00 0.00 0.00 66 1010.8
20260506235514 23 82 1.6 1.6 0.00 0.00 0.00 65 1010.7
20260506235009 23 40 1.6 1.6 0.00 0.00 0.00 64 1010.6
20260506234507 23 81 0.0 0.0 0.00 0.00 0.00 64 1010.6
20260506234004 23 73 3.2 3.2 0.00 0.00 0.00 64 1010.3
20260506233500 23 337 1.6 3.2 0.00 0.00 0.00 63 1010.3
20260506232957 23 78 1.6 3.2 0.00 0.00 0.00 62 1010.5
20260506232454 23 76 1.6 1.6 0.00 0.00 0.00 62 1010.3
20260506231949 23 86 0.0 1.6 0.00 0.00 0.00 62 1010.0
20260506231447 23 80 0.0 0.0 0.00 0.00 0.00 61 1010.0
20260506230944 23 71 0.0 1.6 0.00 0.00 0.00 61 1010.3
20260506230440 24 81 1.6 1.6 0.00 0.00 0.00 60 1010.0
20260506225937 23 71 1.6 1.6 0.00 0.00 0.00 60 1010.2
20260506225434 24 65 1.6 1.6 0.00 0.00 0.00 60 1010.0
20260506224931 24 66 1.6 1.6 0.00 0.00 0.00 59 1010.2
20260506224428 24 93 1.6 1.6 0.00 0.00 0.00 59 1010.0
20260506223925 24 65 1.6 1.6 0.00 0.00 0.00 59 1010.1
20260506223420 25 87 1.6 1.6 0.00 0.00 0.00 59 1010.2
20260506222918 25 71 1.6 1.6 0.00 0.00 0.00 58 1010.2
20260506222414 25 84 1.6 1.6 0.00 0.00 0.00 59 1010.4
20260506221911 25 57 3.2 3.2 0.00 0.00 0.00 58 1010.3
20260506221408 25 76 1.6 1.6 0.00 0.00 0.00 57 1010.3
20260506220906 25 123 1.6 3.2 0.00 0.00 0.00 57 1010.4
20260506220401 25 86 0.0 1.6 0.00 0.00 0.00 57 1010.3
20260506215858 25 59 3.2 4.8 0.00 0.00 0.00 57 1010.2
20260506215354 24 87 1.6 1.6 0.00 0.00 0.00 59 1010.2
20260506214850 24 79 1.6 3.2 0.00 0.00 0.00 58 1010.1
20260506214347 24 100 1.6 1.6 0.00 0.00 0.00 59 1010.2
20260506213845 24 110 1.6 3.2 0.00 0.00 0.00 59 1010.2
20260506213342 24 69 0.0 1.6 0.00 0.00 0.00 59 1010.0
20260506212839 24 81 1.6 1.6 0.00 0.00 0.00 58 1010.2
20260506212335 24 104 3.2 3.2 0.00 0.00 0.00 58 1010.2
20260506211830 24 77 3.2 4.8 0.00 0.00 0.00 58 1010.4
20260506211326 24 104 1.6 1.6 0.00 0.00 0.00 58 1010.1
20260506210824 24 56 1.6 1.6 0.00 0.00 0.00 57 1009.9
20260506210321 24 87 1.6 1.6 0.00 0.00 0.00 58 1009.7
20260506205818 24 59 1.6 3.2 0.00 0.00 0.00 58 1010.0
20260506205314 24 99 1.6 3.2 0.00 0.00 0.00 57 1009.6
20260506204810 24 71 1.6 3.2 0.00 0.00 0.00 57 1009.9
20260506204308 24 142 1.6 3.2 0.00 0.00 0.00 58 1009.6
20260506203806 24 53 3.2 3.2 0.00 0.00 0.00 58 1009.9
20260506203303 25 30 3.2 4.8 0.00 0.00 0.00 57 1009.7
20260506202759 25 87 1.6 3.2 0.00 0.00 0.00 57 1009.8
20260506202256 24 72 1.6 1.6 0.00 0.00 0.00 57 1009.8
20260506201753 25 20 4.8 4.8 0.00 0.00 0.00 57 1010.0
20260506201249 25 69 3.2 4.8 0.00 0.00 0.00 56 1009.9
20260506200747 25 81 3.2 3.2 0.00 0.00 0.00 56 1010.1
20260506200243 25 84 1.6 1.6 0.00 0.00 0.00 57 1010.0
20260506195739 25 80 0.0 1.6 0.00 0.00 0.00 57 1010.1
20260506195236 25 87 3.2 3.2 0.00 0.00 0.00 56 1010.5
20260506194733 25 58 1.6 3.2 0.00 0.00 0.00 57 1010.4
20260506194230 24 89 3.2 3.2 0.00 0.00 0.00 57 1010.9
20260506193728 24 114 3.2 4.8 0.00 0.00 0.00 59 1010.9
20260506193224 24 18 6.4 9.7 0.00 0.00 0.00 58 1010.8
20260506192721 23 78 1.6 3.2 0.00 0.00 0.00 62 1011.2
20260506192218 23 73 0.0 1.6 0.00 0.00 0.00 65 1011.3
20260506191714 22 81 0.0 1.6 0.00 0.00 0.00 69 1011.6
20260506191210 22 75 1.6 1.6 0.00 0.00 0.00 69 1011.5
20260506190708 22 91 0.0 1.6 0.00 0.00 0.00 73 1011.6
20260506190204 22 81 0.0 0.0 0.00 0.00 0.00 72 1012.0
20260506185702 22 80 0.0 0.0 0.00 0.00 0.00 70 1011.9
20260506185158 23 79 0.0 0.0 0.00 0.00 0.00 68 1011.9
20260506184656 24 101 3.2 3.2 0.00 0.00 0.00 63 1012.0
20260506184153 25 78 0.0 1.6 0.00 0.00 0.00 57 1011.8
20260506183649 25 74 3.2 3.2 0.00 0.00 0.00 55 1012.2
20260506183145 25 86 1.6 1.6 0.00 0.00 0.00 56 1011.7
20260506182643 25 32 3.2 4.8 0.00 0.00 0.00 56 1012.0
20260506182139 24 72 1.6 1.6 0.00 0.00 0.00 58 1011.9
20260506181638 24 67 1.6 1.6 0.00 0.00 0.00 58 1011.8
20260506181134 25 55 3.2 3.2 0.00 0.00 0.00 57 1012.0
20260506180631 25 102 1.6 1.6 0.00 0.00 0.00 56 1012.2
20260506180128 25 145 3.2 6.4 0.00 0.00 0.00 56 1012.0
20260506175624 25 147 3.2 4.8 0.00 0.00 0.00 57 1012.2
20260506175120 25 356 3.2 4.8 0.00 0.00 0.00 58 1012.1
20260506174619 25 91 3.2 4.8 0.00 0.00 0.00 56 1012.1
20260506174115 25 65 3.2 6.4 0.00 0.00 0.00 58 1012.1
20260506173613 24 180 1.6 3.2 0.00 0.00 0.00 60 1012.4
20260506173109 24 142 3.2 4.8 0.00 0.00 0.00 59 1012.4
20260506172607 24 46 3.2 3.2 0.00 0.00 0.00 59 1012.2
20260506172103 24 85 3.2 3.2 0.00 0.00 0.00 60 1012.5
20260506171601 24 73 1.6 3.2 0.00 0.00 0.00 61 1012.4
20260506171058 23 76 1.6 3.2 0.00 0.00 0.00 62 1012.7
20260506170555 22 80 3.2 4.8 0.00 0.00 0.00 64 1012.8
20260506170053 22 82 0.0 1.6 0.00 0.00 0.00 64 1013.1
20260506165551 22 81 3.2 3.2 0.00 0.00 0.00 65 1013.3
20260506165047 22 85 1.6 3.2 0.00 0.00 0.00 65 1013.4
20260506164544 22 91 0.0 1.6 0.00 0.00 0.00 64 1013.4
20260506164042 22 82 1.6 3.2 0.00 0.00 0.00 65 1013.5
20260506163537 22 97 3.2 3.2 0.00 0.00 0.00 66 1013.5
20260506163033 22 77 0.0 1.6 0.00 0.00 0.00 67 1013.5
20260506162530 22 83 3.2 3.2 0.00 0.00 0.00 67 1013.5
20260506162027 22 219 1.6 3.2 0.00 0.00 0.00 68 1013.4
20260506161525 22 86 1.6 3.2 0.00 0.00 0.00 67 1013.6
20260506161021 21 48 4.8 4.8 0.00 0.00 0.00 67 1013.5
20260506160519 21 95 3.2 4.8 0.00 0.00 0.00 67 1013.5
20260506160016 22 85 0.0 1.6 0.00 0.00 0.00 67 1013.5
20260506155514 21 102 1.6 3.2 0.00 0.00 0.00 68 1013.5
20260506153646 21 34 3.2 4.8 0.00 0.00 0.00 70 1013.9
20260506153143 21 53 1.6 1.6 0.00 0.00 0.00 71 1014.0
20260506152639 21 71 3.2 4.8 0.00 0.00 0.00 71 1013.9
20260506152137 21 92 3.2 4.8 0.00 0.00 0.00 72 1013.9
20260506151636 20 90 1.6 1.6 0.00 0.00 0.00 73 1013.9